Wind_Speed
10 11 12 13 14 16 17 19 20 21 21 21 22 24 25 26 26 27 28 30 32 33 34 34 35 36 36 36 32 26 28 26 21 20 20 21 25 27 31 29 27 31 29 28 29 28 29
14 15 16 17 18 19 20 21 22 23 25 26 27 26 26 27 28 29 31 32 33 32 33 33 33 34 35 40 33 29 26 24 23 24 24 26 27 25 26 26 26 20 27 29 30 32 30
16 18 19 20 21 22 23 25 26 28 30 30 30 31 31 31 31 31 32 34 34 31 31 31 32 32 35 29 29 31 30 29 30 29 29 27 27 29 24 27 31 32 34 34 36 35 34
17 19 20 22 24 25 26 27 29 30 32 33 34 35 35 35 35 32 31 32 31 30 27 28 30 32 34 30 27 28 29 32 32 32 32 32 30 28 29 26 31 25 24 25 21 20 26
19 21 23 25 27 28 29 31 32 34 36 37 37 37 37 37 35 33 31 31 30 29 28 27 29 28 31 23 20 21 28 32 32 33 32 29 30 30 30 32 23 21 26 25 22 23 23
21 23 25 26 28 29 30 32 34 36 36 37 39 41 39 38 38 34 30 30 29 28 28 25 24 21 22 25 22 20 20 24 26 27 26 27 28 31 29 26 29 23 29 27 22 21 26
22 24 26 28 30 32 33 33 33 35 36 37 38 40 42 41 37 35 31 29 30 34 24 28 28 30 35 31 26 23 20 21 22 24 25 27 30 30 36 31 33 31 31 28 21 17 25
25 25 27 29 31 33 32 34 35 36 37 37 37 38 37 35 35 35 32 31 31 33 40 31 31 33 35 35 33 30 25 24 27 30 27 25 33 31 25 26 28 30 34 34 30 26 29
26 28 29 30 32 34 34 34 37 38 38 37 35 33 31 30 31 32 32 31 31 36 41 33 25 20 17 16 19 25 31 35 35 31 28 32 24 14 25 30 34 36 36 33 32 25 29
28 29 31 33 34 36 37 38 38 37 35 34 33 34 32 29 31 32 31 30 30 32 29 18 10 7 8 6 8 8 11 19 22 24 23 26 30 34 32 31 27 32 26 26 27 21 26
32 32 33 36 37 36 34 33 33 33 33 33 34 35 36 36 32 30 30 29 27 25 8 13 13 12 14 12 11 11 12 17 21 19 19 15 17 18 22 24 19 26 20 21 19 22 23
32 33 35 34 34 34 35 35 36 37 37 37 36 37 38 37 37 33 32 30 25 8 10 9 12 13 15 18 19 17 18 22 24 27 28 32 27 26 24 19 18 17 14 13 11 14 13
34 34 35 35 36 37 38 40 41 42 43 40 39 39 41 41 39 36 32 28 11 9 11 10 16 16 19 20 23 25 26 29 26 16 21 25 28 34 32 29 24 21 13 6 11 10 10
35 36 36 38 40 41 43 44 45 46 48 48 42 43 43 42 38 30 25 18 12 16 17 24 23 26 26 17 21 21 27 28 28 27 24 18 20 22 27 32 25 29 29 16 12 14 15
36 38 40 41 43 45 45 46 47 49 52 56 54 43 42 41 34 29 18 11 12 17 16 22 28 22 24 19 20 18 21 28 26 27 23 18 27 21 25 19 24 26 34 37 34 35 19
39 40 42 43 44 45 47 49 51 52 53 56 58 56 47 34 20 18 21 19 20 22 26 29 22 21 29 27 24 19 19 15 15 26 25 28 32 30 22 24 29 31 12 18 23 14 22
40 41 42 43 45 48 49 51 53 54 55 56 54 48 39 33 29 14 14 13 18 23 22 19 23 28 31 32 29 31 29 23 20 16 19 19 25 31 17 20 26 21 27 21 21 29 13
40 42 43 45 48 51 52 52 53 52 51 47 46 39 36 18 22 10 12 18 23 22 23 26 28 28 29 29 32 32 35 30 27 19 15 17 21 31 35 28 24 23 18 33 27 26 23
40 43 45 47 49 51 50 48 46 42 37 36 32 34 19 29 15 18 18 22 22 21 25 20 20 23 25 29 29 24 14 14 20 24 16 15 20 27 29 31 27 26 28 22 15 20 10
42 44 47 48 47 45 42 37 31 30 30 32 33 25 19 24 16 27 28 25 26 26 28 25 28 28 25 24 25 20 40 29 28 23 26 28 20 23 16 18 22 17 30 32 28 13 20
43 44 44 42 39 34 32 31 29 29 29 28 26 23 23 25 29 26 28 36 33 31 31 25 32 29 23 29 31 29 23 30 26 29 28 20 20 19 20 22 20 24 30 23 25 26 18
41 39 35 30 28 29 29 29 26 26 27 26 24 25 23 32 31 26 27 29 32 31 32 31 26 30 22 27 28 35 32 34 30 28 19 25 21 20 24 18 12 18 19 17 18 22 17
32 26 24 26 26 27 27 27 26 26 26 26 22 26 27 32 27 27 24 27 30 24 36 31 28 28 26 29 34 33 35 36 37 33 26 24 14 10 11 12 14 12 16 16 11 13 15
20 21 23 24 25 25 26 27 27 27 26 23 24 25 27 33 27 25 25 24 30 25 25 23 16 24 24 22 29 30 27 28 31 28 22 29 20 15 13 12 10 7 10 10 13 16 13
19 20 22 25 27 28 28 27 26 26 26 24 22 20 24 30 28 26 29 28 27 23 23 23 20 16 21 24 28 21 19 24 19 13 17 21 22 8 7 12 9 9 7 6 8 10 10
20 22 25 29 30 29 29 28 28 26 27 25 20 21 21 26 21 22 23 20 24 23 29 26 17 20 27 25 20 11 9 19 3 2 4 8 15 16 11 9 6 7 7 8 8 5 10
23 26 27 28 28 29 30 29 28 27 26 28 22 19 20 27 25 28 19 28 24 24 27 25 14 30 22 13 16 13 12 12 5 4 4 2 5 15 18 13 3 8 5 6 6 6 9
25 26 28 29 30 31 31 29 27 26 25 27 26 21 21 27 29 18 24 25 18 23 24 23 26 9 14 17 12 12 11 4 5 4 6 3 3 4 6 8 2 13 5 7 8 9 10
27 28 30 31 32 32 31 29 27 27 27 27 26 24 17 23 27 22 18 19 17 24 24 26 20 15 7 10 10 10 12 6 8 3 6 4 3 3 3 2 5 4 1 6 7 8 9
Wind_Direction
347 344 340 338 337 337 337 336 336 335 333 332 330 328 327 325 323 321 318 315 312 309 305 300 293 286 280 275 277 274 271 272 263 260 259 257 254 257 258 264 255 247 271 267 270 267 270
336 336 336 337 335 335 332 333 333 332 330 328 326 324 322 319 319 318 316 313 312 312 307 301 296 289 281 277 279 273 266 260 257 260 252 250 253 256 251 252 243 256 265 266 265 269 268
335 335 333 331 331 331 333 333 331 329 327 325 324 322 321 319 317 317 315 312 311 311 308 303 300 296 288 289 272 263 261 259 256 253 251 249 246 245 252 257 257 257 260 264 263 266 267
332 331 330 329 329 330 330 328 326 324 323 322 321 320 319 317 315 314 311 306 306 306 304 299 297 293 290 291 275 262 253 253 252 250 249 249 246 245 242 246 259 256 263 259 265 263 254
331 331 332 331 331 331 329 327 326 325 324 324 322 322 321 317 315 313 310 306 305 303 302 300 294 290 292 290 280 262 250 248 247 248 247 244 244 245 245 247 255 250 254 251 267 257 254
336 335 334 332 329 327 326 327 326 326 325 325 325 324 324 320 317 315 313 311 309 304 305 301 293 288 278 282 274 264 250 244 241 242 242 241 241 240 240 230 231 243 249 254 257 249 261
336 335 332 329 328 327 328 328 327 325 325 325 325 324 323 321 320 318 318 315 315 312 307 302 290 282 276 271 268 260 247 236 233 232 237 251 246 230 249 247 250 258 265 266 255 257 258
334 332 330 329 327 325 325 326 325 324 322 322 321 320 320 320 321 323 324 326 324 317 311 307 293 281 272 267 259 251 241 230 232 244 255 240 244 248 249 249 254 257 260 261 262 255 264
332 330 329 327 325 322 322 321 319 319 320 319 318 316 317 319 321 322 324 325 325 323 320 318 301 288 275 267 262 249 245 248 251 255 242 241 247 261 248 251 250 253 253 259 259 261 267
328 328 328 327 324 321 321 321 322 322 321 319 320 319 318 317 320 321 322 324 326 328 317 306 299 286 264 264 262 249 240 238 243 250 243 254 261 252 247 255 248 257 256 259 256 253 252
326 327 328 326 323 324 324 325 325 325 322 320 319 317 317 318 319 319 319 321 324 327 303 292 280 280 269 251 269 269 261 257 247 252 235 243 257 252 239 247 245 254 246 238 246 249 257
328 328 327 325 325 325 324 323 324 322 320 318 318 317 315 313 314 315 315 316 319 315 247 264 264 270 271 271 268 269 269 265 259 250 249 255 254 257 257 254 245 231 245 244 230 227 239
328 327 326 325 325 324 324 325 323 321 317 316 317 314 311 312 311 311 310 308 310 237 291 268 265 270 268 267 269 275 272 264 255 245 249 272 264 262 255 248 245 223 207 220 220 206 244
327 326 326 326 324 324 324 323 322 320 317 316 316 315 313 313 312 310 306 297 246 279 274 278 282 278 280 279 272 263 258 252 250 241 263 263 266 240 238 237 225 225 213 216 237 234 244
325 326 328 325 323 323 324 323 321 318 318 316 317 318 314 315 313 310 302 251 272 288 288 287 285 289 288 276 278 273 258 257 252 242 230 252 253 243 241 237 219 232 222 232 255 265 278
327 328 324 323 325 324 322 321 319 319 318 317 318 321 326 321 314 305 290 255 267 283 280 284 286 281 281 276 279 267 275 283 261 241 239 255 263 252 251 242 235 219 238 213 215 236 239
325 323 322 324 324 321 321 321 320 320 319 318 319 323 327 322 325 327 272 269 280 287 295 295 288 285 280 284 279 276 271 269 284 277 268 254 255 259 230 230 234 228 231 227 243 230 250
322 322 323 325 323 322 322 322 322 322 320 322 325 327 326 332 338 313 301 298 290 300 304 295 290 289 286 289 287 278 275 272 287 273 278 272 263 253 250 252 237 235 247 237 237 240 241
322 323 324 324 324 325 326 326 327 329 335 334 334 331 339 334 328 314 310 304 298 307 304 297 299 301 301 297 301 292 292 261 290 274 264 264 264 267 263 256 258 260 249 237 241 260 242
324 324 326 327 329 330 333 339 339 336 341 340 342 331 333 327 334 318 304 311 309 300 299 295 297 300 296 298 296 285 305 311 302 306 300 306 290 290 295 283 298 288 248 238 240 251 256
325 327 331 334 338 345 352 356 355 347 346 341 346 344 331 313 316 310 307 317 312 307 314 295 302 291 286 296 297 299 302 300 294 278 295 291 284 290 276 297 290 287 272 232 226 235 239
330 334 341 354 7 14 15 10 3 355 349 344 340 336 316 320 320 318 320 318 315 315 322 296 287 305 280 283 291 295 298 298 306 306 284 286 281 285 295 307 305 303 283 286 252 236 236
342 356 12 17 17 13 8 2 358 355 351 341 335 329 321 323 323 317 316 317 310 312 322 315 295 311 305 299 294 293 290 291 292 288 285 269 278 284 275 277 275 271 256 257 269 258 262
12 16 14 11 5 0 358 357 354 349 345 338 331 324 321 318 322 319 315 313 318 307 310 323 309 300 306 296 298 297 294 293 287 263 259 253 264 271 283 285 255 265 275 257 246 252 246
9 4 1 356 353 349 347 346 345 343 338 334 334 320 312 313 323 336 322 318 327 323 316 311 319 307 319 308 312 313 306 293 290 271 261 247 256 267 250 278 271 261 249 238 212 241 247
351 349 347 344 342 341 340 337 338 335 336 332 325 317 312 306 320 322 327 335 328 323 318 325 323 320 319 311 303 277 297 304 258 267 200 221 235 232 274 284 287 216 240 214 215 238 277
342 341 340 339 338 339 339 337 331 329 330 328 324 310 305 301 312 315 307 317 317 313 318 326 305 319 318 303 298 270 287 297 316 337 356 312 260 239 264 263 228 334 244 197 192 266 275
341 338 337 336 336 337 338 336 329 326 327 326 325 313 298 295 310 307 311 315 317 315 317 318 321 325 306 304 301 313 304 314 293 283 300 277 308 320 298 276 171 328 250 213 218 247 245
336 333 332 333 334 333 333 332 331 329 324 319 320 318 303 296 304 302 308 317 315 319 314 314 315 331 290 298 309 325 310 300 290 296 279 263 263 295 312 224 252 332 157 202 223 237 245
Height
3148 3145 3143 3141 3138 3135 3133 3130 3126 3123 3120 3116 3113 3110 3107 3103 3100 3096 3093 3089 3086 3082 3079 3076 3073 3069 3067 3066 3067 3068 3066 3066 3066 3066 3066 3066 3066 3067 3064 3064 3065 3061 3062 3063 3062 3062 3061
3148 3145 3142 3140 3137 3134 3131 3127 3124 3120 3117 3113 3110 3106 3103 3099 3095 3091 3087 3083 3079 3075 3071 3067 3064 3060 3057 3054 3058 3058 3058 3058 3059 3059 3059 3060 3060 3060 3058 3058 3057 3056 3055 3055 3055 3055 3054
3146 3144 3141 3138 3135 3132 3128 3125 3121 3117 3114 3110 3105 3101 3097 3093 3089 3085 3080 3075 3071 3068 3064 3059 3055 3050 3046 3049 3049 3048 3049 3050 3050 3051 3052 3052 3053 3052 3052 3052 3050 3048 3048 3048 3047 3048 3046
3143 3140 3138 3135 3132 3128 3125 3121 3118 3113 3109 3105 3101 3096 3091 3086 3082 3079 3074 3068 3065 3061 3058 3054 3049 3044 3037 3038 3039 3039 3040 3041 3042 3042 3044 3045 3045 3045 3045 3046 3044 3043 3042 3041 3043 3041 3040
3141 3138 3135 3131 3128 3124 3121 3117 3113 3109 3104 3099 3095 3090 3085 3080 3076 3072 3067 3062 3058 3054 3050 3046 3043 3038 3033 3031 3030 3031 3031 3032 3033 3034 3035 3037 3038 3038 3039 3039 3040 3039 3033 3034 3036 3035 3034
3139 3136 3132 3129 3125 3121 3116 3112 3108 3103 3098 3093 3087 3082 3077 3071 3067 3064 3061 3056 3052 3047 3044 3040 3036 3035 3031 3027 3025 3025 3025 3025 3027 3028 3030 3031 3030 3029 3031 3032 3024 3027 3029 3029 3029 3031 3027
3136 3133 3129 3126 3121 3116 3112 3107 3103 3099 3094 3089 3084 3078 3073 3065 3060 3056 3054 3050 3049 3041 3038 3036 3032 3028 3023 3021 3021 3020 3021 3021 3022 3023 3024 3024 3024 3019 3022 3024 3024 3025 3023 3022 3024 3025 3021
3134 3130 3126 3122 3117 3113 3108 3103 3099 3093 3088 3082 3077 3073 3068 3062 3056 3052 3047 3043 3039 3035 3024 3029 3021 3015 3013 3012 3012 3014 3017 3018 3017 3017 3020 3020 3010 3016 3019 3021 3020 3019 3016 3016 3018 3020 3016
3131 3127 3123 3118 3113 3108 3103 3098 3093 3088 3082 3077 3071 3066 3062 3058 3053 3049 3045 3041 3035 3027 3019 3013 3008 3005 3006 3006 3005 3007 3010 3011 3011 3011 3012 3010 3010 3009 3011 3011 3011 3007 3008 3011 3011 3014 3009
3126 3122 3118 3114 3109 3104 3098 3092 3087 3082 3077 3072 3067 3061 3058 3055 3052 3046 3042 3038 3032 3026 3015 3007 3003 3001 3002 3001 3002 3002 3003 3006 3004 3003 3005 3002 3001 3000 3003 3002 3003 2999 3004 3004 3005 3007 3001
3123 3118 3113 3109 3104 3099 3093 3087 3082 3077 3073 3067 3063 3058 3054 3049 3046 3042 3039 3034 3030 3027 3019 3005 3001 3000 2999 3001 2999 2999 2999 2998 2998 2997 3000 2994 2992 2992 2991 2991 2996 2993 2993 2996 2998 2998 2999
3119 3114 3109 3103 3098 3093 3088 3082 3077 3072 3068 3063 3058 3053 3049 3047 3041 3038 3034 3030 3028 3029 3012 3000 2997 2995 2995 2994 2993 2991 2993 2991 2992 2990 2988 2985 2987 2985 2987 2986 2988 2988 2989 2990 2990 2992 2986
3114 3108 3103 3097 3093 3087 3082 3077 3072 3066 3061 3057 3051 3046 3040 3037 3035 3031 3028 3026 3027 3022 3007 2997 2994 2993 2990 2990 2987 2987 2985 2983 2984 2984 2980 2977 2974 2975 2979 2979 2981 2981 2985 2984 2984 2983 2971
3108 3103 3097 3092 3087 3080 3075 3069 3063 3058 3050 3045 3045 3040 3034 3029 3024 3021 3020 3021 3019 3006 3004 2992 2991 2989 2986 2987 2982 2981 2978 2976 2974 2975 2974 2971 2967 2967 2965 2965 2969 2969 2974 2969 2961 2959 2958
3103 3097 3092 3087 3082 3074 3068 3063 3056 3050 3040 3031 3027 3032 3025 3020 3015 3014 3014 3015 3008 3001 2997 2992 2989 2984 2986 2982 2981 2978 2972 2969 2969 2970 2968 2962 2957 2956 2955 2957 2962 2962 2959 2959 2961 2957 2958
3097 3092 3087 3081 3074 3068 3062 3056 3049 3042 3033 3023 3017 3012 3011 3009 3007 3007 3005 3002 3002 2997 2993 2991 2987 2986 2979 2978 2976 2973 2969 2964 2962 2962 2961 2955 2951 2951 2950 2950 2948 2949 2954 2955 2953 2948 2943
3092 3087 3081 3075 3067 3061 3055 3048 3041 3034 3025 3017 3010 3006 3004 3001 2998 2998 2996 2996 2994 2992 2989 2987 2984 2978 2975 2972 2971 2967 2963 2962 2959 2956 2954 2952 2951 2945 2944 2940 2943 2943 2940 2942 2941 2937 2929
3087 3081 3075 3068 3061 3054 3047 3039 3031 3024 3016 3010 3005 3002 3000 2996 2999 2996 2995 2992 2988 2987 2987 2982 2979 2975 2971 2968 2962 2960 2957 2956 2952 2949 2949 2949 2942 2935 2937 2939 2935 2935 2933 2936 2934 2932 2930
3081 3075 3067 3059 3053 3046 3039 3032 3024 3017 3011 3004 3001 2997 2996 2997 2997 2996 2993 2992 2987 2982 2980 2977 2973 2972 2969 2963 2959 2955 2948 2945 2944 2945 2945 2942 2939 2932 2931 2933 2932 2929 2929 2930 2930 2930 2929
3075 3067 3059 3052 3045 3038 3031 3024 3018 3014 3011 3006 3001 2998 2996 2993 2996 2992 2987 2984 2983 2981 2975 2973 2969 2966 2964 2960 2957 2950 2946 2944 2942 2940 2939 2936 2932 2932 2925 2922 2925 2923 2924 2924 2926 2923 2923
3067 3060 3052 3045 3039 3033 3026 3021 3018 3014 3010 3005 3001 2999 2997 2993 2989 2986 2983 2984 2976 2971 2971 2967 2961 2959 2960 2954 2949 2946 2944 2939 2938 2935 2934 2931 2927 2927 2925 2922 2919 2920 2919 2918 2918 2919 2921
3060 3054 3047 3041 3036 3031 3027 3022 3018 3013 3009 3005 3002 2998 2994 2989 2986 2983 2978 2977 2973 2968 2966 2958 2958 2954 2952 2950 2947 2940 2937 2936 2933 2928 2928 2926 2921 2920 2919 2917 2918 2917 2917 2914 2914 2916 2916
3056 3050 3045 3040 3036 3032 3028 3022 3017 3011 3006 3001 2998 2996 2991 2987 2984 2979 2975 2971 2967 2965 2958 2953 2952 2949 2944 2944 2938 2934 2931 2927 2926 2924 2923 2922 2919 2919 2916 2917 2917 2917 2914 2912 2912 2912 2914
3054 3050 3046 3041 3037 3032 3027 3021 3015 3009 3004 3000 2997 2992 2987 2981 2979 2975 2971 2967 2963 2959 2956 2951 2949 2945 2942 2936 2931 2926 2922 2917 2914 2913 2916 2915 2916 2916 2915 2914 2911 2910 2908 2907 2909 2912 2912
3054 3050 3046 3041 3037 3031 3025 3020 3014 3009 3004 3000 2994 2991 2985 2979 2977 2970 2967 2963 2958 2955 2952 2948 2946 2941 2937 2933 2928 2920 2916 2911 2907 2906 2906 2910 2913 2913 2912 2908 2908 2907 2907 2908 2908 2911 2910
3054 3049 3044 3040 3034 3029 3023 3017 3011 3006 3001 2996 2992 2987 2983 2978 2975 2970 2963 2960 2955 2951 2946 2944 2940 2938 2935 2930 2926 2921 2915 2911 2905 2905 2905 2908 2910 2912 2908 2907 2903 2905 2905 2906 2908 2909 2907
3051 3046 3042 3037 3031 3025 3019 3013 3008 3003 2997 2991 2988 2984 2979 2975 2970 2966 2962 2958 2954 2951 2945 2941 2936 2933 2930 2926 2923 2916 2915 2911 2908 2908 2906 2907 2908 2907 2906 2904 2905 2904 2904 2904 2908 2912 2904
3048 3044 3039 3033 3027 3020 3015 3009 3004 2999 2993 2988 2984 2980 2976 2971 2966 2962 2959 2954 2951 2948 2943 2940 2936 2932 2928 2926 2921 2917 2913 2910 2910 2908 2908 2908 2907 2905 2904 2901 2903 2903 2903 2904 2905 2903 2903
3046 3041 3035 3029 3023 3017 3011 3006 3000 2994 2990 2985 2980 2976 2971 2967 2962 2958 2954 2951 2948 2944 2940 2937 2934 2930 2928 2924 2921 2917 2913 2910 2909 2908 2908 2909 2908 2908 2909 2906 2905 2903 2902 2902 2902 2902 2902